TimeMST,TemperatureF,Dew PointF,Humidity,Sea Level PressureIn,VisibilityMPH,Wind Direction,Wind SpeedMPH,Gust SpeedMPH,PrecipitationIn,Events,Conditions,WindDirDegrees,DateUTC
1:50 AM,64,61,88,30.07,2,South,2.2,,,,Scattered Clouds,180,2012-12-22 08:50:00
4:50 AM,61,59,92,30.07,2,Calm,Calm,,,,,,2012-12-22 11:50:00
5:46 AM,55.4,51.8,88,30.05,20.0,Calm,Calm,-,N/A,,Scattered Clouds,0,2012-12-22 12:46:00
6:48 AM,53.6,51.8,94,30.07,10.0,South,4.6,-,N/A,,Mostly Cloudy,170,2012-12-22 13:48:00
7:40 AM,61,60,93,30.11,16,SW,2.2,,,,Clear,230,2012-12-22 14:40:00
7:50 AM,55.4,51.8,88,30.14,10.0,South,3.5,-,N/A,,Mostly Cloudy,190,2012-12-22 14:50:00
8:51 AM,60.8,57.2,88,30.11,10.0,Calm,Calm,-,N/A,,Overcast,0,2012-12-22 15:51:00
9:40 AM,66.2,60.8,83,30.11,10.0,Calm,Calm,-,N/A,,Overcast,0,2012-12-22 16:40:00
10:44 AM,71.6,62.6,73,30.15,12.0,NNW,9.2,-,N/A,,Mostly Cloudy,340,2012-12-22 17:44:00
10:50 AM,75,68,72,30.10,19,NW,6.7,,,,Clear,320,2012-12-22 17:50:00
11:45 AM,73.4,60.8,65,30.08,12.0,North,13.8,-,N/A,,Mostly Cloudy,350,2012-12-22 18:45:00
12:46 PM,71.6,60.8,69,30.05,12.0,NNW,13.8,-,N/A,,Mostly Cloudy,330,2012-12-22 19:46:00
1:50 PM,77,69,69,30.02,19,NW,6.7,,,,Clear,320,2012-12-22 20:50:00
1:52 PM,73.4,60.8,65,30.07,12.0,North,4.6,-,N/A,,Scattered Clouds,350,2012-12-22 20:52:00
2:46 PM,75.2,57.2,53,30.01,12.0,North,9.2,-,N/A,,Scattered Clouds,360,2012-12-22 21:46:00
3:51 PM,73.4,62.6,69,30.01,12.0,NNW,9.2,-,N/A,,Mostly Cloudy,340,2012-12-22 22:51:00
4:41 PM,71.6,62.6,73,30.06,10.0,NNW,11.5,-,N/A,,Mostly Cloudy,330,2012-12-22 23:41:00
4:45 PM,74,65,67,30.01,16,NNE,6.7,,,,Mostly Cloudy,20,2012-12-22 23:45:00
5:44 PM,71.6,59.0,64,30.03,10.0,North,4.6,-,N/A,,Mostly Cloudy,10,2012-12-23 00:44:00
6:48 PM,68.0,60.8,78,30.04,8.0,North,4.6,-,N/A,,Mostly Cloudy,10,2012-12-23 01:48:00
7:45 PM,69,65,85,30.02,2,NNE,4.5,,,,Clear,20,2012-12-23 02:45:00
7:51 PM,68.0,60.8,78,30.12,8.0,NNE,4.6,-,N/A,,Mostly Cloudy,20,2012-12-23 02:51:00
8:51 PM,66.2,60.8,83,30.07,8.0,NNE,4.6,-,N/A,,Mostly Cloudy,30,2012-12-23 03:51:00
9:44 PM,66.2,60.8,83,30.08,8.0,NE,3.5,-,N/A,,Scattered Clouds,40,2012-12-23 04:44:00
10:40 PM,66.2,60.8,83,30.12,8.0,NNE,4.6,-,N/A,,Mostly Cloudy,30,2012-12-23 05:40:00